Theta_e
318 320 321 321 319 317 317 317 317 318 317 317 318 317 318 317 317 317 318 317 315 316 316 315 315 315 315 316 316 316 317 317 317 317 316 316 315 316 315 316 316 316 316 314 310 310 310 309 309 308 306 305 305 304 303 302 301 300 299 298 297 297 296 296 296 295 295 294 294 294 293 293 292 292 292 292 291 291 291 291 291 290 290 289 289 289
320 320 320 319 317 317 317 317 318 318 318 318 319 318 318 319 317 316 318 317 315 317 317 317 317 316 316 316 316 317 317 317 317 317 317 316 315 316 316 317 316 316 320 320 313 310 308 308 308 307 306 305 304 303 302 301 301 300 299 299 298 297 296 296 296 295 295 294 294 294 293 293 292 292 292 291 291 291 290 290 290 290 289 289 289 289
322 320 319 318 317 317 317 318 319 319 320 320 321 320 318 318 317 318 319 316 313 316 318 317 317 316 316 317 316 316 317 317 317 317 317 316 316 316 316 316 317 318 324 322 315 310 308 307 307 306 305 304 304 302 302 301 301 300 299 299 298 297 296 296 296 295 295 294 294 294 293 293 292 292 292 292 291 290 290 290 290 290 289 289 289 289
322 320 318 318 318 318 316 318 319 319 319 320 320 319 317 317 318 318 318 316 313 315 317 317 317 316 316 316 316 316 316 316 317 317 318 318 317 317 316 317 319 322 323 318 314 312 308 306 306 305 304 303 303 302 301 301 300 300 299 298 298 297 297 296 296 295 295 294 294 293 293 293 293 292 292 292 291 291 290 290 290 289 289 289 289 288
319 319 320 320 319 320 318 319 322 319 317 320 321 319 317 317 318 318 320 319 316 316 316 317 317 316 317 317 317 317 317 317 317 317 317 318 318 318 318 320 322 324 323 317 313 312 309 307 305 304 303 303 303 302 301 301 300 300 299 298 298 297 296 296 295 295 295 294 294 294 294 293 293 293 292 292 291 291 290 290 290 289 289 288 288 288
318 319 323 323 321 323 322 320 323 324 318 318 322 322 319 319 319 320 323 324 325 323 318 317 318 317 319 320 318 319 320 319 317 317 317 317 317 317 319 320 322 324 323 317 313 312 310 307 304 303 303 302 302 302 301 301 300 300 299 299 298 297 297 296 295 295 295 294 294 294 294 293 293 292 292 292 292 291 291 290 290 289 289 288 288 288
318 319 322 323 323 325 326 322 323 325 319 316 325 329 323 321 324 326 325 326 329 327 320 320 320 318 318 318 318 320 322 321 318 317 318 317 317 317 318 321 324 324 322 317 313 312 310 307 304 304 302 302 302 302 301 301 300 300 299 299 298 297 297 296 295 295 295 294 294 294 294 293 293 292 292 292 291 291 291 290 289 289 288 288 288 288
319 320 322 323 323 325 325 322 321 322 320 320 327 330 325 323 326 326 325 327 328 323 321 322 321 321 319 316 318 321 320 321 319 317 318 317 316 316 315 319 326 326 321 318 315 312 310 308 305 304 302 302 302 302 302 300 300 299 299 298 298 297 297 296 295 295 294 294 294 293 293 293 293 292 292 291 291 290 290 289 289 289 288 288 288 287
323 324 325 324 323 323 321 321 325 324 321 323 325 324 323 323 323 322 322 325 324 320 321 324 322 322 320 316 318 320 318 319 318 317 319 316 315 317 315 318 326 326 320 318 316 313 311 307 304 303 303 302 302 302 302 301 300 299 299 298 298 297 297 296 295 295 294 294 294 293 293 292 292 292 291 291 291 291 290 290 289 289 288 288 287 287
323 320 320 323 322 321 320 322 328 328 323 322 323 321 322 322 319 320 320 320 321 319 321 325 322 320 319 315 316 319 317 317 317 316 316 315 315 318 317 319 326 325 320 317 316 314 311 306 305 305 303 303 302 302 301 301 300 299 298 298 298 297 297 296 295 295 294 294 293 293 292 292 292 291 291 291 291 291 291 290 289 289 288 287 287 286
317 312 314 321 321 318 321 319 318 322 322 320 321 319 321 322 319 319 318 317 320 320 319 323 322 318 318 317 317 318 317 317 317 315 315 315 316 318 318 321 327 324 320 318 316 315 311 306 304 305 304 303 302 301 301 300 300 299 298 298 297 297 296 296 295 295 294 294 293 293 292 292 292 291 292 292 291 291 290 290 289 288 287 287 287 286
316 314 315 321 320 316 320 319 314 314 317 320 320 317 321 323 320 319 317 318 321 320 320 324 321 318 319 319 318 318 317 316 316 315 315 316 317 319 320 323 327 323 319 318 317 316 313 307 306 304 303 303 302 301 301 300 300 298 298 298 297 297 296 296 295 295 294 294 293 293 292 292 292 292 292 291 291 290 290 289 288 288 287 286 286 286
320 317 316 320 319 317 320 321 315 313 315 320 321 318 321 322 321 322 322 323 323 320 322 325 322 319 318 317 317 317 317 317 316 316 316 317 319 322 324 325 327 323 319 317 317 315 312 309 308 304 302 302 301 301 300 300 299 298 298 297 297 296 296 296 295 295 294 293 293 292 292 292 292 292 292 291 291 290 290 289 288 287 287 286 286 286
325 322 319 319 318 317 318 317 318 319 317 317 320 321 324 324 322 324 325 327 326 321 321 322 322 323 318 316 319 317 316 317 316 317 319 320 321 324 327 330 327 322 319 317 316 315 312 310 308 304 302 301 301 300 300 300 299 298 298 297 297 296 296 295 295 294 294 293 293 292 292 292 292 292 291 291 290 290 289 289 288 288 287 287 286 286
324 322 320 320 320 318 316 314 319 324 317 313 317 320 323 324 321 321 323 323 324 324 321 318 321 322 317 318 321 317 316 317 316 317 319 323 324 323 329 330 325 321 319 318 316 314 312 310 307 304 302 302 301 300 300 299 299 298 298 297 297 296 296 295 295 294 294 293 293 292 292 292 291 291 291 290 290 290 289 289 288 288 287 287 286 286
320 321 321 320 319 316 315 316 319 323 320 315 317 318 320 323 320 319 322 321 320 323 321 317 321 320 314 316 319 316 317 316 315 316 317 321 323 322 328 328 324 321 319 318 316 314 313 310 306 303 303 302 301 300 299 299 299 298 298 297 297 296 296 295 295 294 294 293 293 292 292 291 291 291 291 290 290 289 289 288 288 288 287 287 286 286
318 322 323 317 315 315 315 318 319 321 322 318 319 320 320 322 321 321 323 321 319 321 319 316 320 318 313 316 317 315 317 315 315 316 314 318 320 320 324 325 322 320 318 317 316 314 313 311 307 304 303 303 301 301 300 299 299 298 298 297 297 296 296 295 295 294 294 293 292 292 291 291 291 291 290 290 289 289 288 288 288 287 287 286 286 285
318 319 322 318 317 315 311 313 315 315 318 319 321 321 318 321 323 320 321 322 321 321 319 316 317 316 314 317 318 316 315 315 315 315 314 316 316 317 322 324 322 320 319 317 316 315 313 312 309 305 303 303 302 301 300 299 299 298 298 297 297 296 296 295 295 294 294 293 292 292 291 291 290 290 290 289 289 288 288 287 287 287 286 286 285 285
321 317 321 318 316 313 308 310 315 315 315 316 318 318 318 321 323 320 320 322 322 319 317 317 316 315 314 315 316 316 315 314 314 314 314 314 314 316 321 322 322 322 321 318 317 316 313 312 309 305 303 303 303 302 301 300 299 298 298 298 297 297 296 295 295 294 293 293 292 291 291 290 290 289 289 289 288 288 287 287 286 286 286 285 285 284
320 318 319 316 312 313 311 312 317 318 315 312 313 315 316 317 321 322 320 320 320 317 316 317 316 315 315 315 316 318 316 314 313 313 314 314 314 317 319 320 322 324 323 320 317 315 313 312 309 305 304 304 303 302 301 300 299 298 298 298 297 296 296 295 295 294 293 292 292 291 290 290 289 289 288 288 288 287 287 287 286 286 285 285 284 284
318 319 318 315 311 313 314 313 315 318 316 313 313 316 314 313 316 319 319 318 318 317 316 317 316 315 315 317 319 318 315 313 314 315 315 316 316 317 319 320 322 324 323 320 317 314 313 312 308 303 303 304 303 302 301 300 299 298 298 297 297 296 296 295 294 294 293 292 291 291 290 289 289 288 288 287 287 286 286 286 286 285 285 284 284 284
319 319 317 317 315 314 315 313 313 314 316 315 314 314 314 314 315 317 318 317 317 316 316 316 316 315 315 319 319 318 316 314 315 315 315 318 317 317 319 320 321 323 323 321 319 316 314 313 310 304 302 303 302 301 301 300 299 298 298 297 297 296 296 295 294 293 293 292 291 290 290 289 288 287 287 286 286 286 285 285 285 284 284 283 283 283
320 320 318 317 317 315 316 316 316 315 315 315 315 315 314 314 315 316 316 316 316 317 316 316 316 315 315 320 319 316 316 314 315 317 318 320 320 319 321 323 322 321 321 322 321 318 317 315 311 304 301 301 301 300 300 299 298 298 297 297 296 296 295 295 294 293 292 291 291 290 289 288 287 286 286 285 285 285 284 284 284 283 283 283 283 282
319 320 317 316 316 315 316 318 317 314 314 316 317 316 315 313 313 315 315 314 316 317 316 316 317 315 316 322 321 318 317 316 316 319 321 322 321 319 321 322 322 321 321 323 323 320 319 317 312 307 305 302 299 299 299 298 298 297 297 296 296 296 295 294 294 293 292 291 290 289 288 287 286 285 285 285 284 284 284 283 283 283 283 282 282 282
317 318 316 315 316 316 316 315 315 313 313 315 316 316 316 315 314 315 315 314 315 316 315 315 315 314 315 320 322 318 317 317 316 317 318 318 317 316 317 318 319 320 321 323 323 322 321 319 314 311 308 303 298 298 298 297 297 297 296 296 295 295 295 294 293 292 291 290 289 288 287 286 285 285 284 284 283 283 283 282 282 282 282 282 282 281
315 318 317 315 316 316 316 315 316 318 314 312 314 315 315 317 317 316 316 316 315 316 315 315 314 313 313 315 316 315 314 314 314 314 314 315 316 316 316 317 318 320 321 321 322 322 321 318 313 310 307 301 297 297 297 296 296 296 296 296 295 295 294 293 292 292 290 289 288 287 286 285 285 284 283 283 283 282 282 282 282 281 281 282 281 281
314 316 315 314 315 315 315 314 316 318 315 313 315 315 314 316 317 316 316 316 315 315 315 315 314 314 313 313 313 312 312 312 312 312 312 313 315 316 317 318 319 318 319 319 318 319 318 315 311 308 306 301 297 296 296 296 296 296 295 295 295 294 294 293 292 291 290 289 287 286 286 285 284 283 283 282 282 281 281 281 281 281 281 281 281 280
315 314 314 314 314 313 314 314 313 314 314 314 315 314 314 315 316 317 317 315 315 315 315 315 315 316 315 313 312 312 312 312 312 312 312 312 312 314 315 316 317 318 317 317 317 317 316 315 311 308 305 301 296 295 296 295 295 295 295 294 294 294 293 292 291 290 289 288 287 286 285 284 283 283 282 281 281 280 280 280 280 281 281 280 279 279
317 314 315 316 315 314 313 313 313 313 313 313 313 313 314 315 315 316 316 314 315 315 314 314 315 316 314 312 313 313 312 312 312 311 312 311 311 311 311 313 318 320 318 318 318 316 315 315 312 308 305 302 298 295 294 294 294 294 294 294 294 293 293 292 290 289 288 287 286 285 284 283 282 282 281 281 280 280 280 280 280 279 279 279 278 278
315 313 314 315 314 314 314 313 313 313 313 313 313 313 313 314 314 314 314 313 314 314 314 313 314 314 313 312 312 312 312 311 311 311 311 310 311 311 310 312 314 315 316 318 318 316 314 314 312 310 307 304 301 297 294 293 293 293 293 293 293 292 292 291 290 288 287 286 285 285 284 283 281 281 280 280 279 279 279 279 279 278 278 278 277 277
312 312 313 314 314 314 314 313 313 313 313 313 313 313 313 313 313 313 313 313 313 314 313 313 314 314 312 312 311 311 311 311 310 310 310 310 310 311 311 311 311 310 311 314 315 314 313 312 312 310 307 307 304 298 294 293 293 293 293 292 292 292 291 290 289 288 286 285 285 284 283 282 281 280 279 279 279 279 278 278 278 278 277 277 276 276
311 312 312 313 314 314 314 314 313 313 313 313 313 313 313 312 313 312 312 312 313 313 313 313 314 313 311 311 311 311 311 311 311 310 310 311 311 311 311 311 311 310 310 310 312 313 312 311 311 309 308 308 304 297 294 294 293 292 292 292 291 291 290 289 288 287 286 285 284 283 282 281 280 279 279 279 278 278 278 277 277 277 276 276 275 275
310 311 312 313 314 315 314 314 313 313 314 314 313 312 312 312 312 312 312 312 312 312 313 313 313 312 311 311 311 311 311 311 311 311 311 311 311 311 311 310 310 310 310 311 313 314 313 312 311 310 309 307 303 298 297 295 293 292 292 292 291 290 288 287 287 286 285 284 283 282 281 280 279 279 278 278 278 277 277 277 276 276 275 275 275 275
311 311 312 314 315 315 315 314 314 314 315 316 315 313 312 312 312 312 313 312 311 311 312 312 311 311 311 311 311 311 311 311 311 311 311 311 311 311 310 310 310 310 310 311 313 314 314 312 311 311 307 303 302 301 299 296 295 293 293 291 290 288 287 286 285 285 284 283 282 281 280 279 279 278 278 277 277 277 276 276 275 275 275 275 275 275
311 311 311 313 314 315 315 315 316 316 316 316 315 313 312 311 312 312 313 312 311 311 311 311 311 310 310 310 310 311 311 310 311 311 311 311 311 310 311 310 311 310 310 311 312 312 312 311 313 314 308 302 301 302 298 296 295 293 292 290 288 287 286 285 284 284 283 282 281 280 280 279 278 278 277 277 276 276 275 275 275 274 274 275 275 275
312 312 312 313 314 314 315 316 317 318 315 314 313 312 311 312 312 312 313 312 311 311 311 311 311 310 310 310 310 310 310 310 310 311 311 311 311 311 311 311 312 311 311 311 312 312 312 310 309 310 307 303 301 300 297 295 294 292 290 289 287 286 285 284 283 283 282 281 281 280 279 278 278 277 276 276 275 275 274 274 274 274 275 275 275 275
312 312 313 314 314 315 315 315 315 316 315 314 315 313 312 312 312 312 313 313 311 310 311 310 310 310 310 310 310 310 310 310 311 311 310 311 311 312 312 312 313 312 311 311 311 310 308 305 304 305 304 302 300 299 297 295 293 291 288 287 285 285 284 283 283 282 282 281 280 279 279 278 278 277 276 275 274 274 273 274 274 274 274 274 274 274
312 312 313 315 315 315 316 316 316 317 316 316 316 314 312 311 311 312 313 313 312 312 311 310 310 310 310 311 311 311 311 312 311 311 311 311 312 312 313 313 313 313 312 312 312 310 305 303 304 305 304 301 299 297 296 294 292 289 286 285 284 284 283 283 282 282 282 281 280 279 278 278 277 276 275 274 274 274 274 274 274 274 274 274 274 273
311 311 312 314 315 316 317 317 318 317 317 316 315 313 312 313 312 312 314 314 314 313 312 311 311 311 311 311 311 311 312 312 312 311 311 311 311 311 312 313 313 312 312 310 308 309 307 303 302 303 301 297 296 295 294 293 290 288 285 284 283 283 282 282 282 282 281 281 280 279 278 278 277 276 275 274 274 274 274 273 273 273 273 273 273 273
311 311 312 313 314 315 316 317 317 316 317 318 316 313 312 312 312 315 316 317 315 313 313 312 312 312 311 311 312 312 313 313 312 311 311 311 312 312 312 313 312 312 313 310 305 304 304 302 302 303 299 295 294 294 292 291 289 286 285 283 282 282 282 282 282 282 281 280 279 278 277 277 276 275 275 274 274 273 273 273 273 273 273 273 272 272
310 311 312 313 314 314 315 317 316 314 316 317 316 314 313 312 313 316 317 316 313 313 312 311 311 311 311 311 310 310 310 309 308 309 310 310 311 311 312 312 311 310 310 308 304 302 300 298 300 301 297 294 293 292 290 289 287 285 284 283 282 282 283 283 282 282 280 279 278 277 276 276 275 275 274 274 273 272 272 273 273 273 273 272 272 271
311 311 311 312 313 313 314 314 314 314 314 314 315 315 312 312 314 314 313 311 310 309 308 308 308 307 307 306 306 306 306 306 306 306 307 307 308 308 308 307 308 308 306 302 300 299 297 296 297 297 295 294 294 292 290 288 286 285 284 282 282 283 283 283 282 281 279 278 277 276 275 275 274 274 273 272 273 272 271 272 272 273 272 272 271 270
310 311 312 312 311 311 313 314 313 313 311 309 310 313 312 312 312 309 308 307 305 303 303 304 304 304 303 303 304 304 305 305 305 305 305 306 305 305 305 305 306 307 306 304 301 297 297 301 300 295 293 294 294 292 290 288 286 285 283 283 283 283 283 282 281 279 278 276 275 274 274 273 273 272 272 271 272 272 271 271 271 272 271 271 270 269
304 306 308 308 309 310 312 312 311 309 305 302 303 304 306 308 307 304 304 305 303 302 301 301 301 301 301 301 301 302 303 304 304 304 304 305 305 304 305 305 305 305 306 306 302 296 297 303 302 294 292 293 292 291 289 288 287 285 284 284 284 283 282 281 279 277 276 274 273 273 272 272 271 271 271 271 272 272 271 270 270 270 270 270 269 268
302 301 301 303 305 305 306 306 305 304 303 300 299 300 303 305 303 301 301 301 301 300 300 299 299 299 299 299 299 300 301 301 301 301 301 302 303 303 304 304 304 306 306 304 300 295 295 298 299 294 292 290 289 289 289 288 288 286 285 285 284 282 281 279 277 276 274 273 272 271 270 270 270 270 271 271 272 272 270 269 269 269 268 268 268 268
297 298 300 301 301 299 299 301 302 301 300 298 298 300 303 303 301 300 299 298 299 299 298 298 298 297 297 297 298 298 299 298 298 298 298 299 300 301 302 303 303 305 306 304 301 296 293 293 295 296 295 291 287 287 288 288 288 288 287 286 283 281 280 278 275 274 273 271 270 270 269 269 269 269 269 270 270 271 271 270 270 268 267 268 268 268
294 296 297 297 296 295 295 297 298 297 296 295 298 302 303 301 300 300 298 296 296 296 295 295 296 295 296 296 296 296 297 297 296 296 296 297 299 299 300 301 302 304 305 305 302 297 293 294 298 300 300 296 289 287 288 288 288 288 287 285 282 280 278 276 274 273 271 270 269 268 268 268 267 267 267 268 269 269 270 270 270 268 267 267 268 268
294 294 294 294 294 294 294 294 294 295 294 295 299 302 300 297 296 296 294 293 293 293 293 293 293 294 294 294 294 294 294 295 295 295 296 297 298 299 299 301 302 303 303 302 300 296 295 298 301 301 300 298 294 290 288 287 286 286 285 283 281 278 276 274 273 271 270 269 268 267 267 267 266 266 266 267 267 268 268 269 269 269 268 269 269 269
293 293 293 293 293 293 293 294 294 294 293 294 296 297 295 292 292 292 291 292 292 293 293 293 293 293 294 294 294 294 295 295 296 296 297 297 298 299 300 301 302 303 303 302 299 297 296 298 301 300 298 297 294 291 288 286 285 284 283 282 279 277 275 273 272 270 269 268 267 267 267 266 266 266 266 266 267 268 269 269 269 269 269 269 270 270
293 293 293 294 294 294 294 294 293 291 291 291 291 292 291 291 291 291 291 292 293 293 293 293 292 292 293 294 295 295 295 296 296 296 297 297 298 298 299 300 301 301 302 301 299 297 296 295 295 296 295 293 292 291 288 285 284 283 282 280 278 276 275 272 270 269 268 267 266 266 266 266 266 266 266 266 266 267 267 268 269 269 269 269 269 270
292 292 292 292 292 292 291 291 290 290 290 290 290 290 291 291 291 290 291 291 292 292 291 290 290 290 291 292 293 293 293 294 294 295 296 296 296 297 297 298 299 299 299 299 299 300 300 295 291 291 292 291 290 288 286 284 282 281 280 279 277 276 274 272 270 268 267 266 266 266 266 266 265 265 266 266 267 267 267 267 268 269 269 269 269 270
Wind_Speed
4 4 5 7 11 10 9 12 13 14 13 12 12 9 9 8 8 13 10 4 9 6 8 13 12 13 16 15 13 13 12 12 12 11 11 12 12 12 11 12 13 13 11 10 19 26 29 30 30 29 29 30 32 32 33 35 36 36 37 37 36 36 35 36 35 34 33 32 31 28 28 28 27 26 25 23 21 19 18 18 17 15 13 13 13 11
1 6 9 14 15 10 9 11 12 12 13 12 10 8 8 7 10 14 8 3 6 5 7 10 11 13 16 16 13 12 13 13 13 12 13 15 15 12 11 14 14 10 6 8 13 18 25 27 27 28 28 30 31 32 33 35 36 36 37 38 38 37 37 37 38 37 36 36 35 33 32 31 29 27 27 26 24 22 20 19 18 17 15 15 14 12
4 9 13 16 12 9 11 11 9 10 10 9 6 5 7 7 10 11 4 2 3 3 5 8 10 11 14 16 15 14 14 13 13 14 15 16 15 13 13 13 11 8 6 8 9 12 19 23 26 27 28 31 32 33 34 35 36 36 37 38 38 38 38 38 38 38 37 35 34 33 31 30 28 27 26 25 23 22 21 20 20 18 16 16 14 13
6 9 13 15 12 12 13 10 8 9 8 8 6 5 8 9 9 7 2 3 4 5 5 7 8 9 12 15 16 17 18 15 14 16 16 15 15 15 16 12 8 9 8 9 9 10 13 18 23 25 27 29 30 31 33 34 36 36 37 38 38 39 39 38 38 37 36 33 31 28 26 26 25 24 23 21 19 20 21 21 20 19 18 16 15 13
13 7 5 8 10 11 12 9 7 7 8 8 7 7 10 11 11 9 5 2 4 7 5 4 8 8 10 14 15 13 12 13 13 13 14 14 15 15 14 11 8 9 9 11 11 10 11 14 20 25 27 28 29 31 33 36 37 37 37 38 39 39 39 38 37 36 34 32 29 26 24 23 22 22 23 22 21 22 22 22 21 19 18 16 15 14
14 7 5 5 5 7 8 7 7 6 8 8 7 11 15 14 12 11 8 4 3 5 2 1 7 7 7 12 12 5 4 9 8 10 13 13 15 14 10 10 10 8 9 11 12 12 11 12 17 23 26 27 29 32 35 36 38 37 37 38 38 38 38 38 37 36 35 34 33 32 31 29 26 25 27 28 28 27 26 24 21 19 17 16 16 15
6 4 6 8 8 7 7 6 7 8 8 9 4 7 10 11 10 9 7 3 3 5 2 3 2 8 7 8 9 4 6 9 7 8 12 12 13 12 9 9 8 8 9 10 11 11 12 12 15 19 25 29 31 33 34 35 36 36 36 37 38 38 38 38 37 37 37 36 36 36 36 34 32 30 29 30 29 28 27 24 21 19 18 18 17 16
4 6 5 7 7 7 7 8 8 9 7 6 2 1 1 3 5 4 3 4 4 4 3 4 4 8 13 7 8 8 8 8 8 8 11 13 13 11 11 10 8 9 10 10 10 11 13 13 15 19 26 31 32 32 33 34 35 36 36 37 38 37 37 38 38 38 39 38 38 37 35 33 33 31 29 28 27 25 25 23 22 21 20 19 18 17
3 7 8 9 7 6 8 6 5 9 7 4 1 2 3 2 1 1 1 4 3 5 4 6 7 5 13 6 7 10 10 9 10 10 13 15 13 11 12 11 8 10 11 11 11 12 13 13 18 23 27 30 31 31 33 35 35 35 36 36 37 37 38 38 39 40 40 39 38 37 35 32 31 29 26 26 25 23 24 24 23 23 21 20 18 16
0 4 5 6 7 6 5 1 2 3 6 4 2 4 5 2 1 2 2 2 2 6 7 7 9 5 13 10 6 7 8 10 10 10 13 15 13 10 11 11 9 9 9 10 10 11 12 15 20 24 25 27 29 31 33 33 34 35 35 36 38 38 38 38 39 40 40 39 37 37 36 34 31 28 25 26 27 27 27 26 25 24 22 20 18 16
1 2 1 2 4 4 4 4 3 1 2 3 3 3 2 1 1 2 2 1 1 9 8 10 14 9 9 7 5 7 9 10 10 10 12 11 10 10 10 9 9 8 7 8 9 9 10 14 20 23 23 26 28 30 31 32 33 35 36 36 38 38 38 38 39 40 40 39 38 38 38 36 34 31 30 30 31 30 29 28 27 25 23 21 18 17
2 1 1 1 1 4 5 3 1 2 0 2 3 2 1 2 2 3 1 3 2 10 5 11 17 14 10 5 3 4 8 12 12 11 12 11 10 11 9 9 8 9 8 8 8 8 9 11 15 19 20 24 27 28 31 33 34 36 36 37 37 37 38 38 39 40 41 40 40 39 38 38 36 35 35 35 34 33 32 30 28 25 23 21 19 17
5 8 7 2 1 5 6 2 1 3 1 2 4 4 1 2 2 1 2 2 5 10 4 10 14 12 13 9 2 3 5 11 11 9 11 12 11 10 9 9 7 8 9 9 8 8 9 9 11 13 17 22 26 29 32 34 34 35 36 37 37 38 39 38 39 40 41 41 41 40 39 38 37 37 37 36 35 34 33 31 29 27 25 23 21 21
3 5 6 4 3 5 8 6 4 2 4 7 6 6 5 3 2 3 4 3 6 9 4 6 8 6 8 7 9 12 10 11 11 10 11 10 10 10 10 9 7 8 9 8 9 8 9 10 10 12 16 21 24 29 32 33 34 35 35 37 38 38 39 39 39 40 41 42 41 40 39 38 38 37 37 36 35 34 33 32 30 29 27 26 24 23
4 7 6 9 3 8 13 13 9 4 5 9 6 5 6 4 3 3 5 6 5 6 4 3 5 4 3 3 12 16 15 12 11 12 12 9 9 9 7 7 7 8 8 7 8 9 9 11 11 12 17 21 24 28 31 32 34 35 36 38 39 39 39 40 40 40 42 42 41 40 38 38 38 38 37 36 35 34 34 32 31 29 28 26 24 22
5 9 7 7 1 10 13 11 7 6 2 6 5 4 5 5 5 4 6 7 3 5 6 4 4 6 5 6 9 11 12 13 12 12 11 8 8 8 6 7 7 7 7 7 8 9 9 10 10 13 18 21 24 27 30 32 34 36 37 38 40 40 40 40 41 42 42 41 40 39 39 38 38 37 37 36 35 34 34 33 31 30 28 26 24 22
4 6 3 4 3 5 6 4 4 3 1 3 4 5 5 3 6 5 6 5 2 6 9 5 6 8 8 10 11 11 12 12 11 12 11 10 11 10 7 7 7 7 7 8 8 9 10 10 10 14 18 21 24 28 31 34 37 40 39 39 39 38 38 40 42 42 41 40 40 40 39 38 38 38 38 37 36 34 33 32 31 30 28 26 25 23
5 6 3 3 2 3 2 3 1 2 2 5 3 5 1 3 1 3 1 3 3 7 9 7 9 11 9 9 6 9 13 13 12 13 13 13 13 11 8 7 8 8 8 8 9 8 9 10 11 14 20 24 27 30 33 36 38 39 39 39 39 39 41 43 43 42 40 40 40 40 40 39 39 38 38 37 37 35 34 32 31 30 28 27 26 24
4 5 4 1 1 2 2 2 2 3 2 5 2 2 2 1 1 3 3 2 4 6 8 11 14 12 12 10 5 6 12 14 14 14 14 15 14 10 8 9 9 8 8 8 9 9 9 10 11 14 20 25 27 30 32 34 35 36 37 38 38 40 42 42 41 40 40 40 40 40 40 40 39 38 37 37 37 36 36 35 33 31 29 27 26 24
3 4 5 1 2 2 2 1 4 3 1 2 2 3 1 2 3 4 4 3 5 6 7 12 15 13 10 8 7 9 13 14 13 12 12 13 12 9 8 9 8 8 8 9 9 10 11 12 13 17 22 25 28 30 30 31 33 35 36 36 37 38 38 38 39 40 40 40 40 39 39 39 39 38 38 37 37 37 37 36 34 32 30 28 26 24
2 4 5 1 3 1 2 4 8 8 6 4 1 3 3 2 1 1 3 3 5 6 6 7 12 14 5 2 5 8 10 11 11 10 10 10 10 10 9 8 7 7 8 9 9 9 11 11 12 17 23 25 27 27 27 29 31 32 33 34 36 37 36 38 40 40 41 41 40 39 39 40 39 39 38 37 37 37 36 35 34 32 30 28 25 24
3 4 6 2 1 5 8 9 13 15 13 10 8 9 9 7 4 3 6 6 4 4 6 6 11 16 4 6 4 6 9 11 11 11 10 9 10 10 8 8 8 8 9 9 9 9 10 10 10 14 18 21 23 25 28 30 30 31 33 36 36 36 37 40 41 41 42 40 40 40 40 39 39 39 38 37 37 36 36 34 33 31 29 27 25 24
5 3 5 7 8 11 11 7 9 12 10 6 6 8 8 8 8 8 9 6 3 3 6 7 12 17 6 7 5 3 7 8 9 11 9 8 9 9 7 9 9 10 10 9 10 10 9 10 10 12 16 18 21 24 26 29 31 33 35 36 35 36 38 40 40 40 39 39 40 40 39 38 38 38 38 38 37 36 35 34 32 30 28 27 25 23
3 3 5 8 6 8 8 2 2 2 1 3 5 6 8 9 10 10 8 6 5 5 8 9 12 15 7 4 4 4 6 4 5 7 8 7 7 7 8 9 9 10 9 9 9 9 9 9 8 10 12 14 18 22 24 28 30 32 32 33 34 37 38 38 37 37 37 38 38 38 38 38 38 38 39 38 37 36 35 34 32 30 29 27 25 24
3 3 6 7 6 6 7 5 4 4 0 3 6 7 9 10 10 8 5 5 7 10 15 14 10 12 9 1 4 5 6 5 6 6 6 7 8 8 9 9 9 9 9 9 9 9 9 8 8 10 10 11 16 21 24 27 28 29 31 33 35 35 35 35 35 36 37 37 37 37 38 38 38 39 40 39 38 37 36 34 33 31 29 28 26 24
5 4 5 7 8 8 9 10 6 2 2 2 5 8 10 11 11 9 6 6 9 13 18 15 10 13 14 10 10 12 10 9 10 10 8 8 8 9 8 8 8 9 9 10 11 10 10 9 8 10 10 10 15 20 23 25 27 29 30 32 34 33 33 34 35 36 36 36 36 37 38 39 39 40 40 39 38 37 36 34 33 32 30 28 27 25
0 2 8 12 12 11 12 12 9 4 3 4 6 9 10 11 12 10 7 8 11 13 14 13 14 17 18 20 22 21 18 17 15 15 13 11 9 9 8 8 9 9 9 10 10 10 9 8 9 11 11 11 15 20 23 24 27 28 29 30 32 32 33 34 35 35 36 36 36 37 38 40 40 40 40 39 37 36 36 34 33 32 30 29 28 26
1 4 12 15 17 15 15 17 17 15 14 13 12 12 11 11 13 13 12 15 15 14 13 12 16 20 19 20 24 24 21 18 15 15 16 15 14 11 8 8 9 10 9 9 10 10 10 10 10 12 11 11 14 18 21 23 26 28 28 29 30 31 33 35 36 36 36 36 36 37 38 39 39 38 38 37 36 35 35 35 34 32 31 29 28 27
3 6 9 11 15 16 15 17 19 19 19 18 17 18 15 12 13 15 18 21 18 15 14 14 19 24 20 17 20 21 20 18 16 16 17 18 18 17 14 10 9 10 9 9 10 11 11 12 11 12 12 12 12 15 18 21 24 25 27 28 30 32 34 35 36 36 36 36 37 37 36 36 35 35 36 35 35 35 35 35 34 32 30 29 28 26
4 6 8 12 16 16 17 18 20 20 20 19 19 19 17 15 17 19 20 20 18 18 19 21 24 24 18 16 18 18 16 17 18 20 22 22 21 21 18 13 11 11 9 9 11 12 12 13 12 12 12 11 11 13 16 20 23 26 27 28 31 33 34 36 36 36 36 36 35 34 33 34 34 34 35 35 35 36 35 34 33 32 30 29 27 26
5 7 10 11 11 14 17 19 21 21 20 22 23 20 18 19 22 23 22 18 16 19 23 24 23 20 17 17 19 17 18 19 22 25 26 23 22 21 18 16 15 15 12 10 12 13 12 12 13 12 12 12 13 15 18 21 25 27 27 29 32 34 35 36 36 35 35 34 32 32 33 34 34 34 35 36 35 35 35 34 33 32 31 29 27 25
6 7 7 7 8 11 15 19 23 23 23 24 23 21 22 23 23 21 20 19 19 21 24 22 18 16 15 16 16 17 21 23 25 26 24 21 21 20 19 17 16 16 15 13 12 11 12 13 13 13 13 14 14 16 20 23 24 25 27 30 33 34 35 35 35 33 32 32 32 33 34 35 35 35 36 36 36 36 35 34 33 32 30 29 27 25
7 6 6 7 9 10 14 20 21 19 17 15 16 22 29 29 25 22 20 22 24 22 18 16 17 17 15 13 15 19 23 24 24 22 19 17 19 19 18 17 15 15 17 14 10 10 12 12 12 12 13 14 15 20 26 28 27 28 31 33 33 34 34 34 33 32 32 32 33 35 36 36 36 36 37 36 36 36 35 35 33 32 30 28 26 24
8 10 8 7 7 9 13 16 13 11 11 10 14 24 30 29 26 26 24 26 28 24 19 18 19 18 15 15 19 23 24 23 23 21 17 14 15 16 17 16 14 16 16 12 9 10 11 10 10 11 12 16 22 26 30 32 32 32 33 32 32 32 33 32 32 32 32 34 35 36 37 37 38 37 37 37 37 36 36 35 33 31 30 28 26 24
9 10 8 6 5 7 8 8 9 10 10 10 13 18 22 25 27 29 28 27 27 24 23 24 23 20 20 22 22 23 24 24 25 23 18 15 15 15 16 15 15 16 15 11 9 10 10 9 10 10 11 17 24 25 25 29 31 29 28 29 31 31 32 32 31 31 32 33 35 36 37 38 38 38 37 37 38 37 36 34 32 31 29 27 26 24
11 9 7 6 6 5 4 7 11 8 2 3 8 11 14 17 20 22 23 24 25 25 24 23 23 22 23 23 22 21 23 23 21 17 16 18 18 14 12 12 14 15 14 11 10 10 11 10 10 11 13 17 21 22 24 28 29 26 26 29 32 31 32 31 30 30 32 34 35 37 39 39 39 38 38 38 37 36 35 33 32 31 29 26 25 23
15 11 7 7 7 7 8 10 12 11 6 4 7 10 13 15 16 16 18 21 23 23 21 20 22 23 23 23 22 21 21 18 15 13 16 21 19 13 11 11 12 14 15 12 11 11 12 13 13 15 16 17 19 23 25 26 27 27 26 27 29 29 30 30 30 33 34 35 37 38 40 41 40 39 39 39 38 37 36 35 33 31 29 27 25 23
17 15 12 9 7 8 12 12 10 12 12 11 12 15 17 19 20 19 18 17 13 13 16 20 23 24 23 22 22 20 16 14 11 11 16 19 16 13 13 12 11 12 13 12 11 9 11 14 16 17 17 16 19 23 25 26 28 28 25 25 27 28 28 29 31 34 35 36 38 40 41 42 43 42 41 41 41 40 38 35 33 31 29 27 25 22
20 16 14 12 7 9 13 12 10 12 9 9 14 17 18 20 19 15 15 12 8 10 15 19 21 21 20 21 20 15 11 11 11 11 14 17 15 12 11 10 10 10 11 11 9 9 11 12 11 11 13 14 15 20 23 27 30 27 22 24 27 27 26 29 33 36 37 37 39 41 42 42 43 43 43 43 42 41 38 35 32 30 27 25 23 21
17 12 11 11 8 11 14 10 8 9 6 6 12 15 17 18 13 10 11 7 9 15 20 20 21 21 19 18 15 10 8 10 10 11 12 14 12 8 8 8 9 10 10 9 8 9 9 7 6 6 8 9 10 15 21 26 27 23 21 23 24 24 27 32 34 35 35 35 37 39 40 41 42 43 43 43 42 39 37 35 32 30 27 25 22 20
10 8 9 10 9 13 16 11 7 8 5 6 9 10 10 8 6 10 14 8 4 10 12 10 12 12 10 9 8 5 5 8 10 11 12 12 11 9 7 7 8 9 8 6 6 7 6 7 7 6 4 5 7 12 19 22 20 18 19 20 21 25 31 33 31 32 33 34 35 37 37 39 40 41 40 41 41 38 34 34 32 30 28 25 22 20
6 4 5 9 9 10 11 9 8 8 2 2 7 7 4 3 5 9 8 6 7 8 11 10 9 10 12 11 9 7 9 11 13 13 14 13 12 11 11 10 9 8 7 3 2 6 7 6 6 6 7 8 11 15 21 22 18 16 17 18 22 30 31 28 29 32 33 34 35 35 36 37 38 38 37 38 39 37 34 32 30 29 27 25 22 20
5 4 4 6 6 7 9 6 5 4 4 9 9 5 2 3 5 5 8 10 11 13 14 12 11 12 12 12 12 11 12 12 12 13 13 13 12 12 12 12 11 10 9 6 3 3 6 5 5 8 11 13 15 21 25 25 20 17 17 20 27 29 26 26 31 33 34 35 35 35 36 37 37 37 36 37 38 37 34 31 29 28 27 24 22 20
6 3 3 3 2 2 5 3 2 1 4 10 10 7 8 8 6 9 9 8 9 11 10 9 10 11 11 12 13 14 13 12 13 13 13 12 13 12 12 12 12 12 10 9 8 5 4 4 5 8 11 14 18 21 25 26 21 16 18 23 26 25 25 28 32 33 33 35 35 35 37 38 38 38 38 38 38 36 34 32 30 28 26 24 23 20
5 4 4 5 4 4 5 7 7 5 5 7 7 7 11 9 7 8 8 7 7 7 7 7 11 12 12 11 13 13 13 13 15 15 14 13 12 12 12 12 12 11 10 9 10 9 8 8 7 6 8 13 18 21 24 26 22 17 20 24 23 25 29 32 33 34 34 35 35 36 37 37 38 38 38 39 39 37 36 34 31 29 26 24 23 20
8 9 6 4 6 10 10 10 9 9 12 15 12 9 8 6 5 6 7 7 7 6 5 6 9 11 12 12 11 12 13 14 16 16 16 15 15 13 13 12 12 11 9 9 10 9 9 8 8 7 7 11 18 22 24 26 25 24 24 24 24 28 32 34 35 34 34 34 35 37 38 38 38 38 38 38 38 37 37 36 34 31 28 25 22 19
9 10 8 7 9 11 10 10 13 14 17 19 16 9 5 5 7 7 9 10 11 10 9 9 10 11 12 11 11 12 14 15 16 16 15 14 14 15 14 13 13 11 9 10 12 11 9 7 7 9 8 10 17 22 23 24 28 28 24 22 27 31 34 36 35 33 33 35 37 39 40 40 40 39 37 37 36 34 34 35 34 32 30 28 23 19
10 11 9 8 9 10 11 16 19 17 16 14 11 6 6 9 11 11 11 12 12 13 13 12 11 10 10 10 11 12 13 13 14 14 13 12 12 13 13 13 13 12 10 11 13 12 9 8 10 12 10 12 18 21 21 23 26 26 23 24 29 33 35 35 35 34 33 35 38 39 39 41 44 42 39 37 36 35 34 34 33 33 32 29 26 23
10 12 11 10 11 12 13 13 12 13 14 12 8 6 8 12 15 17 15 13 11 12 12 11 9 8 8 10 11 10 11 12 12 11 11 11 11 12 12 13 13 12 11 12 13 12 10 10 12 12 11 16 20 19 18 22 25 25 25 27 31 35 36 34 32 32 32 33 37 37 36 38 43 44 41 38 35 33 34 34 33 31 28 25 23 23
7 10 10 10 10 10 10 10 10 12 14 15 14 12 11 12 14 16 14 12 10 10 11 11 11 10 9 9 10 10 11 12 12 12 11 10 11 12 12 13 13 12 12 13 14 12 11 12 14 12 12 17 19 17 19 23 24 25 27 30 35 38 38 34 31 30 30 32 34 35 35 38 41 42 42 40 35 30 29 27 25 25 25 22 20 19
7 9 9 10 11 13 15 16 14 13 14 16 19 19 16 12 10 10 11 11 11 10 10 12 13 13 12 10 9 11 12 14 15 15 13 12 12 12 13 13 13 13 13 13 13 11 11 12 13 12 13 18 19 20 22 24 25 28 31 34 38 40 40 37 32 28 29 32 33 36 40 43 42 41 40 38 35 34 32 26 19 17 20 21 20 17
Wind_Direction
169 188 202 224 236 231 216 218 226 237 248 259 267 270 266 272 271 268 276 209 186 199 219 224 232 244 254 255 250 257 257 250 249 244 244 244 244 245 241 243 239 235 233 201 194 197 197 200 198 195 193 190 190 189 188 187 186 188 187 187 187 187 187 187 187 186 186 185 185 186 192 194 195 196 197 200 204 205 207 213 220 223 223 231 240 246
185 205 218 230 238 244 238 237 239 242 248 252 257 267 271 265 267 273 278 206 188 202 232 238 245 249 256 262 259 256 254 253 251 249 251 250 251 252 246 246 242 234 211 174 182 187 190 194 193 191 188 185 186 186 187 187 187 189 190 189 189 188 188 190 191 190 190 192 192 193 196 197 196 198 200 202 203 205 208 214 220 222 222 227 235 242
225 227 232 239 247 255 254 254 255 260 261 263 268 272 274 269 273 281 280 191 186 191 241 251 256 257 260 263 262 257 252 248 246 246 249 252 257 259 253 251 243 220 186 168 172 175 183 187 186 185 185 187 188 186 187 188 188 190 191 191 191 190 191 192 194 194 194 196 198 199 200 197 197 200 203 206 206 205 207 214 219 220 221 227 232 237
226 228 234 243 250 252 254 249 245 268 267 252 255 261 266 262 267 279 248 198 205 211 245 267 268 260 263 266 262 255 252 250 248 246 250 253 254 254 253 254 235 207 188 174 173 173 178 181 181 184 185 187 187 186 187 188 188 190 192 192 192 192 193 194 196 196 197 197 197 200 200 196 197 197 198 201 204 204 206 211 217 218 219 225 231 236
238 227 210 237 240 235 244 245 233 255 261 241 225 231 252 254 251 257 251 215 221 231 241 291 289 263 244 252 257 256 249 246 243 241 249 254 253 252 254 255 234 203 184 176 179 177 175 179 183 187 186 186 186 188 190 190 190 192 193 194 194 195 195 195 196 196 195 193 190 188 184 182 183 183 185 187 191 197 203 208 212 215 217 221 229 235
245 223 174 204 223 218 228 239 217 218 258 260 215 217 240 253 256 262 280 321 303 267 215 194 287 269 211 223 249 260 212 232 232 226 238 247 253 252 247 249 236 205 184 179 181 179 178 182 184 186 187 186 189 192 193 193 193 194 194 195 195 196 196 196 196 195 193 190 186 182 177 175 175 175 184 191 193 196 201 205 209 213 217 220 225 230
239 182 172 201 216 220 225 244 219 204 257 272 229 219 240 255 263 265 280 297 260 266 243 131 286 284 257 225 240 234 191 221 224 218 233 240 248 249 241 240 221 194 189 182 180 180 179 180 180 186 189 189 193 196 195 195 195 195 195 195 195 196 196 196 196 195 193 191 189 187 186 185 184 184 192 199 201 203 205 206 208 212 216 219 222 225
172 155 171 200 212 221 226 246 224 198 235 267 263 272 228 252 265 261 262 244 240 289 273 163 148 278 280 246 202 201 193 218 228 223 236 240 241 245 251 248 205 186 189 179 180 182 181 183 184 188 192 194 196 196 194 195 196 196 195 196 196 197 197 197 197 196 195 194 192 192 192 192 194 194 196 200 202 205 207 205 205 208 211 215 219 222
150 182 203 198 196 219 222 240 215 184 212 249 22 42 77 84 317 74 231 250 290 319 271 186 151 243 277 256 172 186 193 210 222 219 231 239 235 233 244 244 208 192 191 180 183 183 182 188 188 189 192 196 197 195 195 196 196 196 196 196 196 197 198 198 198 197 197 197 195 195 195 195 198 198 199 200 197 196 198 197 198 201 205 210 215 220
112 193 218 187 187 221 213 87 28 173 204 216 131 76 74 82 44 76 230 263 352 289 251 185 159 209 274 268 190 188 203 208 216 218 228 237 236 226 229 231 205 192 191 183 184 183 184 186 185 188 190 193 196 196 197 197 195 196 196 196 197 198 199 199 199 199 199 199 198 198 198 197 197 195 193 193 189 188 189 190 192 195 199 205 211 217
157 93 347 204 194 198 128 85 29 60 161 169 138 81 55 267 28 64 232 99 30 271 249 184 178 194 270 280 173 184 201 195 202 220 229 235 240 233 225 220 198 183 185 180 181 182 176 176 177 181 184 188 193 195 195 196 195 196 196 196 198 199 200 200 199 200 200 200 200 201 202 199 196 191 187 184 183 185 187 188 192 195 198 203 209 217
216 167 204 257 179 130 111 98 15 9 76 124 119 114 343 295 17 36 298 99 201 266 248 175 181 191 233 269 118 177 194 188 199 215 218 218 229 234 224 216 196 175 174 171 173 172 158 162 171 176 181 184 187 190 193 195 195 196 197 197 198 199 200 200 200 200 200 201 203 204 203 201 197 192 188 186 185 187 189 191 194 196 197 200 205 212
236 228 202 203 310 163 145 122 20 351 304 146 136 138 143 285 318 310 249 154 216 258 240 171 179 200 235 251 243 239 200 193 209 217 212 206 209 223 221 213 193 165 167 167 167 169 163 168 173 175 180 181 184 188 192 194 194 195 197 197 199 200 200 200 200 201 201 202 204 205 204 202 198 195 193 191 190 191 193 194 193 194 195 196 199 205
260 269 188 166 297 184 164 179 216 246 191 176 159 148 163 203 242 244 243 234 239 260 260 168 175 220 265 251 213 224 220 201 208 215 214 199 192 213 217 201 177 160 165 167 168 171 173 177 178 180 182 182 186 190 191 193 194 195 197 198 201 202 201 201 201 201 202 204 206 205 204 203 200 198 197 196 194 194 196 196 196 197 198 198 202 207
240 288 182 168 217 175 180 206 205 150 163 192 175 161 189 189 191 227 234 242 259 279 272 166 170 227 278 205 191 208 218 207 203 213 215 200 197 219 211 171 160 162 166 167 172 178 181 181 180 182 184 186 189 191 191 193 194 195 198 200 201 202 200 201 201 202 203 205 206 205 205 203 201 200 199 198 198 198 198 199 198 199 200 202 205 209
229 272 185 159 198 166 182 219 197 116 146 211 158 166 227 200 184 238 259 247 264 304 272 208 212 246 261 256 220 211 219 212 208 217 214 207 218 228 208 170 168 172 171 172 176 183 186 183 181 185 188 190 191 191 193 194 194 197 200 201 202 203 201 201 202 203 205 205 204 204 204 203 202 200 199 198 198 199 200 200 201 200 201 203 203 204
229 279 158 117 338 172 178 236 186 144 213 186 148 194 223 168 167 216 277 279 262 278 271 236 241 274 294 276 240 211 217 216 211 218 214 210 220 223 211 189 186 185 180 181 183 187 187 184 188 192 192 192 191 192 195 197 198 199 200 201 203 202 201 202 204 205 205 204 203 204 204 203 201 200 199 197 196 197 198 199 201 202 201 202 203 203
228 266 215 157 301 265 264 316 308 319 124 137 182 219 198 38 100 166 260 308 261 257 272 263 261 276 284 279 238 193 208 214 209 212 211 214 222 223 212 202 204 195 183 184 187 190 193 190 191 194 196 198 197 196 199 200 202 202 202 202 201 201 202 203 204 205 204 203 202 203 203 202 201 200 199 198 196 196 196 198 200 201 202 203 204 206
207 249 261 164 353 319 333 323 299 328 74 134 215 265 106 92 223 166 173 223 237 250 274 278 278 274 256 260 277 212 205 206 208 208 208 214 220 220 217 216 210 189 178 188 191 192 196 196 196 196 198 202 202 202 203 203 203 204 205 205 203 203 204 203 203 203 204 204 203 202 202 201 201 200 199 198 197 197 197 198 199 200 202 204 206 208
175 218 254 305 355 343 2 226 195 234 275 95 359 341 82 163 175 181 186 190 216 239 268 283 288 279 250 239 242 217 198 198 203 205 210 219 220 216 215 219 210 189 189 198 199 198 196 198 201 198 198 200 202 204 204 203 203 205 206 205 204 206 205 204 203 202 203 204 203 201 200 200 200 199 199 198 197 197 198 199 200 201 202 204 207 211
160 217 233 277 352 310 228 203 184 191 200 178 217 246 212 184 121 218 247 220 206 222 244 268 277 273 258 156 198 191 181 193 195 198 211 218 223 221 212 215 210 202 208 206 204 206 203 202 202 200 202 202 201 202 203 203 205 205 205 205 205 205 203 204 204 202 202 202 201 200 198 197 198 197 197 197 197 198 198 199 200 201 202 203 207 211
175 213 215 198 239 237 233 212 198 202 197 185 195 205 204 193 173 229 247 232 203 215 229 231 260 266 259 99 127 159 173 196 193 198 213 213 220 226 217 216 214 209 214 213 209 210 205 203 200 198 202 202 199 201 202 202 203 204 205 206 205 204 203 204 203 202 202 200 199 199 197 195 195 195 195 195 196 197 197 198 199 199 200 201 205 210
166 162 210 221 227 243 251 224 208 220 215 211 216 206 203 193 188 215 230 229 214 215 232 235 250 259 258 83 73 135 172 201 196 189 199 208 216 219 215 221 224 218 217 212 209 209 206 203 197 192 194 197 202 205 202 200 201 204 206 205 203 203 204 205 204 202 200 198 197 198 195 193 193 193 193 194 194 196 196 197 197 198 199 200 203 208
132 114 210 236 249 267 278 296 15 334 200 233 245 215 208 205 206 221 224 227 228 210 227 239 244 257 268 88 103 137 143 188 219 187 185 210 220 217 221 226 228 227 222 214 213 214 211 201 188 187 191 197 205 206 203 203 203 204 205 204 203 205 206 204 202 201 198 197 196 195 192 192 191 192 192 193 194 194 195 196 195 196 198 200 202 207
197 194 207 236 257 268 274 272 305 337 148 219 240 225 226 226 226 241 246 236 240 230 235 243 249 261 269 170 157 186 170 194 233 220 209 230 238 235 236 237 233 229 223 218 219 219 213 198 186 192 199 201 203 204 205 205 205 204 204 204 204 205 204 202 200 199 197 196 194 192 191 191 191 192 192 193 193 193 193 194 194 195 197 199 202 205
209 201 193 224 237 231 241 245 239 216 166 222 248 236 234 229 224 236 246 235 237 236 237 244 256 263 271 279 265 254 247 247 257 259 251 246 244 240 239 240 235 227 223 222 221 222 215 201 198 203 204 205 204 204 206 205 205 205 205 206 205 203 200 199 198 197 196 195 193 191 191 191 191 192 192 192 192 191 191 191 192 194 196 198 201 203
287 235 222 230 237 233 240 253 262 265 225 224 238 235 232 229 226 228 233 235 242 246 243 244 254 261 268 273 272 269 269 272 275 276 275 269 259 245 230 229 233 230 226 225 225 228 221 208 209 212 209 210 209 207 206 206 205 204 204 205 204 201 198 196 195 195 194 194 193 193 193 192 192 192 191 191 190 189 189 189 191 193 195 198 200 201
40 255 241 241 245 245 249 257 266 272 264 257 258 255 243 230 226 226 231 235 239 248 251 244 251 258 258 259 267 274 275 276 278 279 281 279 273 264 248 239 240 239 236 232 230 231 226 219 216 215 216 215 212 210 208 208 207 205 204 203 200 198 197 195 193 193 194 194 194 195 195 193 192 191 190 189 187 186 187 188 190 193 195 197 199 201
197 236 246 253 256 255 259 260 261 264 265 262 261 261 257 245 232 229 235 239 238 246 256 252 250 254 256 257 263 269 276 283 287 284 281 281 282 282 277 265 249 240 231 228 234 232 225 225 220 216 218 216 210 208 207 207 206 204 203 201 198 197 197 195 193 192 193 194 196 197 195 192 190 189 187 186 184 184 185 187 189 190 192 195 198 200
203 235 237 247 256 255 255 257 256 258 262 264 260 256 257 261 255 246 245 247 249 254 258 258 257 258 262 264 265 272 283 290 290 285 281 281 282 283 281 274 264 258 241 221 229 233 226 226 224 219 218 215 209 207 205 203 202 200 199 197 196 196 196 194 192 192 193 195 197 195 191 189 187 186 184 184 183 183 184 184 186 188 190 193 196 198
212 227 222 232 251 248 242 246 247 247 251 255 257 256 256 259 258 256 257 256 256 256 255 256 261 264 265 265 270 280 284 281 278 277 278 280 280 280 280 277 273 273 265 237 229 232 230 229 229 226 221 217 215 210 205 203 201 199 198 196 195 196 195 193 193 193 194 194 193 191 188 186 185 184 183 183 182 182 183 183 185 187 189 191 194 197
194 217 216 222 244 239 231 236 239 240 242 245 251 259 257 252 249 248 249 249 247 250 254 256 258 258 256 260 269 272 269 268 268 269 272 276 277 277 277 276 273 274 273 259 237 228 229 230 230 226 222 223 222 213 207 204 198 196 196 197 197 195 192 192 192 192 192 191 189 187 186 185 183 182 182 182 181 182 182 184 185 186 188 190 192 195
185 209 212 214 239 243 230 233 237 238 240 239 233 237 242 244 246 245 245 245 244 245 250 250 248 251 255 259 260 260 259 260 261 262 263 267 272 274 271 272 273 272 270 264 241 225 229 232 230 226 221 223 222 216 211 204 197 198 200 198 195 191 189 190 190 190 189 188 187 186 184 183 182 181 181 181 181 182 182 183 184 186 188 190 191 195
194 211 220 217 237 245 234 238 245 237 236 228 211 220 230 236 241 243 241 239 239 239 239 243 246 250 252 249 247 250 253 256 257 259 257 256 262 268 270 272 273 270 268 262 240 233 235 231 232 233 225 223 223 220 214 206 202 204 201 195 190 187 185 186 188 187 186 186 186 185 183 182 181 180 180 180 180 181 182 183 184 186 188 190 191 195
203 213 226 224 236 246 233 235 244 237 231 227 216 218 227 234 238 242 245 244 244 245 245 247 248 246 243 243 243 245 248 252 256 261 264 260 254 258 266 269 267 266 267 267 258 254 250 240 236 235 228 225 224 219 209 203 203 200 193 186 183 182 183 185 185 186 186 185 185 184 182 181 180 179 179 179 180 180 181 182 183 185 187 189 192 195
217 219 224 222 227 239 223 215 232 251 268 206 214 215 223 235 241 248 253 251 247 247 246 248 250 247 245 246 246 248 252 255 259 266 269 265 258 251 247 248 255 264 267 265 261 260 261 254 238 231 230 225 219 210 201 200 197 187 181 181 180 180 181 182 182 185 186 186 185 184 182 181 180 179 178 178 179 179 180 181 182 185 186 188 192 195
223 224 228 230 220 220 235 232 237 260 269 203 195 202 211 223 226 233 248 246 238 239 244 248 250 249 249 250 250 251 257 261 267 269 264 263 263 254 234 226 239 257 263 263 258 257 265 263 248 239 233 217 206 202 198 194 187 177 174 176 176 177 178 180 184 187 188 187 186 184 184 182 180 179 178 179 179 179 180 181 182 184 186 186 188 192
220 219 219 225 213 213 242 249 243 251 247 222 212 209 212 225 227 228 246 249 229 224 233 238 243 245 247 251 251 252 257 262 265 264 262 263 263 255 244 236 233 241 251 257 254 255 264 262 254 245 229 208 202 202 194 185 177 172 170 171 174 176 178 183 189 191 190 189 187 185 184 184 182 181 179 180 181 180 180 180 181 182 185 186 187 190
223 221 221 231 225 216 237 245 240 248 247 217 217 216 216 228 233 236 257 257 210 207 229 234 240 242 241 246 248 246 250 256 254 253 255 257 257 251 246 245 244 241 243 247 245 246 256 259 255 239 216 203 203 199 187 179 173 169 169 174 175 177 183 191 195 194 192 190 188 186 185 184 184 183 181 181 182 181 178 178 178 179 182 184 185 187
228 224 222 231 230 225 238 246 239 251 251 193 205 215 219 228 227 232 258 249 181 203 224 229 235 241 244 251 256 250 246 254 259 262 261 261 265 261 239 234 241 244 247 249 239 232 234 229 210 200 206 214 209 192 182 176 171 169 174 176 176 183 195 199 197 194 191 189 187 186 185 185 185 183 181 181 179 178 176 175 175 176 177 180 183 184
235 230 222 230 233 228 234 242 247 251 240 188 203 213 213 221 220 226 244 255 212 226 239 242 252 270 287 298 304 305 293 301 310 308 302 298 297 290 269 252 248 247 252 248 211 189 178 178 179 184 211 222 197 181 179 173 170 175 178 174 183 198 203 201 195 190 188 185 184 184 184 184 183 181 181 180 176 173 173 173 173 174 175 177 179 179
236 237 221 223 235 237 233 245 262 258 233 196 244 235 184 191 246 249 266 325 1 357 2 10 5 4 4 359 357 346 330 336 342 339 334 330 324 320 318 316 308 293 289 293 151 141 136 151 177 191 202 195 183 185 184 178 177 184 179 182 202 208 203 195 189 185 183 180 180 181 181 180 180 178 177 176 174 170 168 169 171 173 173 174 174 175
283 291 252 214 222 240 234 236 251 254 12 358 318 302 327 283 287 331 2 18 29 27 18 11 12 14 7 357 350 340 334 338 343 346 345 341 340 341 335 332 331 320 309 308 299 170 157 166 190 199 198 192 191 192 187 182 184 186 186 203 214 207 195 188 185 180 178 177 176 177 177 176 176 175 173 174 173 169 164 165 168 169 170 171 171 173
290 299 286 282 327 271 237 257 296 252 352 359 2 349 312 310 3 29 20 13 19 22 16 360 353 357 356 350 340 333 334 335 333 337 338 335 337 336 331 333 335 328 320 317 312 289 240 230 227 209 199 197 197 193 188 188 189 188 200 214 212 197 186 184 180 175 174 174 172 172 173 173 173 174 173 172 172 167 163 164 166 166 167 170 172 171
307 331 285 269 302 312 287 292 302 299 307 335 357 331 304 319 22 34 21 13 3 5 11 350 335 334 338 337 329 322 322 322 322 323 323 322 322 318 318 322 320 315 315 311 303 287 258 250 253 238 212 204 201 196 195 197 195 197 213 216 203 187 182 178 174 172 172 171 170 170 169 169 171 172 172 172 171 168 164 163 163 164 165 169 171 168
317 321 300 274 305 314 300 278 282 308 316 316 321 313 302 324 8 9 5 358 335 328 333 317 311 313 313 314 313 310 308 308 310 310 310 311 311 308 309 310 305 304 304 296 287 269 241 239 253 251 233 217 207 201 203 206 205 209 217 211 193 186 182 175 171 172 170 169 169 168 166 165 167 169 169 170 170 170 168 166 165 164 166 169 168 163
301 303 299 296 303 306 299 291 298 307 306 305 304 295 290 328 343 341 339 330 319 314 309 299 295 295 294 295 295 292 292 295 298 300 302 304 303 303 303 301 297 296 289 280 276 260 230 217 233 237 236 235 223 213 213 217 217 218 218 204 190 184 179 174 172 171 171 170 168 167 166 165 165 165 165 166 167 167 168 168 167 166 167 168 166 160
298 302 301 294 288 284 281 288 295 297 295 295 298 302 320 328 325 319 317 316 313 310 308 305 300 294 292 293 290 286 285 287 288 290 294 295 294 295 296 294 293 290 282 276 269 252 221 208 228 232 233 244 240 228 221 223 222 220 214 200 189 181 175 175 175 172 172 171 168 168 169 168 165 164 163 164 165 165 167 168 169 170 172 172 170 164
286 289 291 290 288 285 282 286 297 306 303 294 286 297 313 314 312 313 314 315 313 311 311 311 308 302 297 293 291 291 289 288 289 291 292 293 294 295 294 294 294 292 290 287 275 252 227 224 235 233 231 243 245 235 226 226 223 217 209 198 189 181 176 176 176 173 172 171 170 170 170 168 167 164 162 162 164 166 169 171 172 172 172 174 175 172
267 272 281 289 289 287 294 310 324 319 305 296 296 304 309 308 310 314 317 321 325 327 331 334 334 332 320 308 309 314 310 308 312 311 305 302 301 301 301 301 301 298 296 295 288 271 248 238 240 239 239 245 244 234 228 227 220 211 207 199 189 183 179 175 173 172 172 172 173 174 171 168 167 164 161 160 161 161 164 168 171 172 171 169 170 169
265 274 283 289 289 288 294 303 306 299 292 296 306 313 318 325 330 331 331 331 332 336 339 339 334 330 325 322 324 323 319 317 317 316 313 309 305 305 305 304 303 303 300 297 294 287 272 252 242 240 245 247 243 232 228 224 213 206 204 198 191 187 182 176 172 172 175 176 178 178 173 167 165 163 160 159 159 158 156 154 156 166 171 166 159 157